Content
SEND FEEDBACK

Daily
Averages
Monthly
Summary
United Kingdom

CRANBROOK, ENGLAND


Home > Europe > United Kingdom > England
Elevation: 305 feet     Latitude: 51 16N     Longitude: 000 24E

WEATHER
 
SELECT A DAY
Number of Records: 140,328;   Date Range: 7/1/96 - 8/29/14
 
SHARE

PRINT THIS DATA

[ ← Previous Day ]
WEATHER ALMANAC - JANUARY 11, 2014
[ Next Day → ]
[ °C ]   °F
Weather ElementAverageHighLow
Temperature42.6 °F44.6 °F (11:50 am)39.2 °F (5:50 pm)
Dewpoint35.2 °F39.2 °F (8:20 am)32 °F (3:20 pm)
Humidity75.4 %93 % (9:20 am)61 % (3:20 pm)
Barometer30.12 in30.21 in (6:20 pm)30.01 in (8:20 am)
Wind Speed7.1 mph12.7 mph (8:20 am)
Weather ElementAverage
Visibility6.2 mi
Wind DirectionWNW (280 °)

Weather ElementTotal
Precipitation---
Heating Degree Days23.1 (Base 65)
Averaged from 22 records on January 11, 2014
WEATHER CONDITIONS BREAKOUT
WIND DIRECTION BREAKOUT
WEATHER BY HOUR - JANUARY 11, 2014
[ °C ]   °F
Local TimeTemperatureDewpointHumidityBarometerVisibilityWind DirectionWind SpeedGust SpeedPrecipitationEventsConditions
8:20 AM42.8 °F39.2 °F87 %30.01 in6.2 miNW (310°)12.7 mphScattered Clouds
8:50 AM42.8 °F39.2 °F87 %30.01 in6.2 miWNW (290°)10.4 mphPartly Cloudy
9:20 AM41.0 °F39.2 °F93 %30.04 in6.2 miWNW (290°)9.2 mphPartly Cloudy
9:50 AM42.8 °F39.2 °F87 %30.06 in6.2 miWNW (290°)8.1 mphPartly Cloudy
10:20 AM42.8 °F39.2 °F87 %30.06 in6.2 miWNW (290°)6.9 mphPartly Cloudy
10:50 AM42.8 °F37.4 °F81 %30.09 in6.2 miWest (280°)8.1 mphPartly Cloudy
11:20 AM42.8 °F37.4 °F81 %30.09 inWNW (290°)5.8 mphClear
11:50 AM44.6 °F35.6 °F71 %30.09 inWNW (290°)8.1 mphClear
12:20 PM44.6 °F37.4 °F76 %30.09 in6.2 miWNW (290°)8.1 mphPartly Cloudy
12:50 PM44.6 °F35.6 °F71 %30.09 in6.2 miWNW (290°)8.1 mphPartly Cloudy
1:20 PM44.6 °F33.8 °F66 %30.12 in6.2 miWest (280°)6.9 mphPartly Cloudy
1:50 PM44.6 °F33.8 °F66 %30.12 in6.2 miWest (280°)10.4 mphPartly Cloudy
2:20 PM44.6 °F33.8 °F66 %30.12 in6.2 miWest (280°)10.4 mphPartly Cloudy
2:50 PM44.6 °F33.8 °F66 %30.12 in6.2 miWest (280°)8.1 mphPartly Cloudy
3:20 PM44.6 °F32.0 °F61 %30.15 in6.2 miWNW (300°)10.4 mphPartly Cloudy
3:50 PM42.8 °F32.0 °F66 %30.15 in6.2 miWNW (290°)5.8 mphPartly Cloudy
4:20 PM42.8 °F33.8 °F70 %30.15 in6.2 miWNW (290°)3.5 mphPartly Cloudy
4:50 PM41.0 °F32.0 °F70 %30.18 in6.2 miWest (270°)2.3 mphPartly Cloudy
5:50 PM39.2 °F32.0 °F75 %30.18 in6.2 miSW (230°)3.5 mphPartly Cloudy
6:20 PM39.2 °F32.0 °F75 %30.21 inWNW (290°)2.3 mphClear
6:50 PM39.2 °F32.0 °F75 %30.21 inSW (230°)4.6 mphClear
7:20 PM39.2 °F33.8 °F81 %30.21 inSW (230°)3.5 mphClear
Hourly data recorded from EGKB, located miles away from Cranbrook, England







STORIES FROM OUR PARTNERS